Location: ?astrovice
(49.6513°N, 14.9287°E)
Time: 15:42:27
(UTC+00:00)

FO-99 - Pass Details

Date: 27 October 2021
Orbit: 469 x 501 km, 97.2° (Epoch: 30 November)

Event Time Altitude Azimuth Distance (km) Brightness Sun altitude
Exits shadow 18:49:04 11° 343° (NNW) 1,656 ? -29.9°
Drops below altitude 10° 18:49:13 10° 343° (NNW) 1,725 ? -30.0°
Sets 18:51:20 0° 346° (NNW) 2,616 ? -30.3°
